Regional Weather Roundup
Issued by NWS

Home | Current Version | Previous Version | Text Only | Print | Product List | Glossary Off
Versions: 1 2 3 4 5 6 7 8 9 10 11 12 13 14 15 16 17 18 19 20 21 22 23 24 25 26 27 28 29 30 31 32 33 34 35 36 37 38 39 40 41 42 43 44 45 46 47 48 49 50

000
ASUS45 KPSR 201110
RWRAZ

ARIZONA HOURLY REGIONAL WEATHER ROUNDUP
NATIONAL WEATHER SERVICE PHOENIX AZ
400 AM MST FRI OCT 20 2017

NOTE: FAIR INDICATES FEW OR NO CLOUDS BELOW 12,000 FEET WITH NO
SIGNIFICANT WEATHER AND/OR OBSTRUCTIONS TO VISIBILITY.

AZZ001>003-036-201200-
NORTHWEST ARIZONA

CITY           SKY/WX    TMP DP  RH WIND       PRES   REMARKS
BULLHEAD CITY  CLEAR     75  30  19 CALM      29.69F
KINGMAN        CLEAR     57  32  38 S8        29.83R
$$

AZZ004>008-015-016-018-201200-
NORTH CENTRAL ARIZONA

CITY           SKY/WX    TMP DP  RH WIND       PRES   REMARKS
GRAND CANYON   CLEAR     30  24  78 NE6       29.99F WCI  24
WILLIAMS       PTCLDY    48  32  53 S9        29.99F
PRESCOTT       CLEAR     50  34  54 S6        29.94F
FLAGSTAFF      CLEAR     34  28  79 W3        30.03F
PAYSON           N/A     57  34  41 S6        29.99S
PAGE           CLEAR     62  36  37 S6        29.82F
$$

AZZ009>014-017-201200-
NORTHEAST ARIZONA

CITY           SKY/WX    TMP DP  RH WIND       PRES   REMARKS
WINSLOW        CLEAR     46  35  65 SE7       29.95F
SAINT JOHNS    PTCLDY    48  34  58 NE5       30.01R
WINDOW ROCK    CLEAR     33  28  81 CALM      30.05F
SHOW LOW       PTCLDY    52  34  50 S12       30.05S
$$

AZZ540-542>544-546-548-201200-
GREATER PHOENIX AREA

CITY           SKY/WX    TMP DP  RH WIND       PRES   REMARKS
PHOENIX        PTCLDY    72  44  36 E9        29.76S
BUCKEYE        CLEAR     66  36  32 E5        29.77S
LUKE AFB       CLEAR     66  43  44 W3        29.75S
DEER VALLEY    CLEAR     71  39  31 E7        29.78S
SCOTTSDALE     CLEAR     70  40  33 SE5       29.80S
MESA-GATEWAY   CLEAR     63  36  36 E7        29.80R
$$

AZZ539-553-201200-
SOUTHWEST MARICOPA COUNTY AND PINAL COUNTY

CITY           SKY/WX    TMP DP  RH WIND       PRES   REMARKS
CASA GRANDE    NOT AVBL
$$

AZZ503-504-507>509-201200-
SOUTHEAST ARIZONA

CITY           SKY/WX    TMP DP  RH WIND       PRES   REMARKS
TUCSON         PTCLDY    69  37  30 SE10      29.88F
DAVIS-MONTHAN  PTCLDY    65  35  33 SE7       29.87S
NOGALES        CLOUDY    62  39  42 N3        29.97R
SIERRA VISTA   MOCLDY    63  35  35 NW3       30.01R
DOUGLAS        MOCLDY    61  33  35 E5        29.98S
SAFFORD        PTCLDY    68  44  42 E8        29.89S
$$

AZZ532-201200-
SOUTHWEST ARIZONA

CITY           SKY/WX    TMP DP  RH WIND       PRES   REMARKS
YUMA           CLEAR     72  49  44 W3        29.75S
$$

CAZ041-043-047-048-061-525>527-560>570-201200-
SOUTHERN CALIFORNIA

CITY           SKY/WX    TMP DP  RH WIND       PRES   REMARKS
DOWNTOWN L.A.  CLOUDY    67  60  78 E3        29.88F
L.A. AIRPORT   PTCLDY    64  62  93 CALM      29.89F
SAN DIEGO      MOCLDY    68  61  78 CALM      29.95S
BURBANK        CLOUDY    63  58  83 S6        29.89F
ONTARIO        MOCLDY    61  57  87 NW8       29.91F
RIVERSIDE      CLOUDY    63  60  90 CALM      29.90F
PALM SPRINGS   CLEAR     66  52  60 CALM      29.75F
EL CENTRO NAS  CLEAR     75  48  38 W22G31    29.76F
IMPERIAL       CLEAR     75  50  41 W20G29    29.73F
BLYTHE         CLEAR     65  47  52 NW7       29.72S
NEEDLES        CLEAR     74  33  22 VRB3      29.71F
$$

NVZ020-UTZ003-201200-
SOUTHERN NEVADA-UTAH

CITY           SKY/WX    TMP DP  RH WIND       PRES   REMARKS
LAS VEGAS      PTCLDY    71  39  31 S16G26    29.69S
SALT LAKE CITY PTCLDY    65  37  35 SE18      29.65F
$$

NMZ009-TXZ055-201200-
NEW MEXICO-WEST TEXAS

CITY           SKY/WX    TMP DP  RH WIND       PRES   REMARKS
ALBUQUERQUE    PTCLDY    50  48  93 SE8       30.03F
EL PASO        PTCLDY    60  51  72 CALM      30.02F
$$


........................KEY........................
SKY/WX - SKY CONDITION/WEATHER
TMP    - TEMPERATURE IN FAHRENHEIT
DP     - DEW POINT IN FAHRENHEIT
RH     - RELATIVE HUMIDITY IN PERCENT
WIND   - DIRECTION AND SPEED IN MILES PER HOUR (MPH)
VRB    - VARIABLE WIND DIRECTION
PRES   - MEAN SEA LEVEL PRESSURE IN INCHES OF MERCURY
         F - FALLING PRESSURE   R - RISING PRESSURE
         S - STEADY PRESSURE
VSB    - VISIBILITY IN MILES
HX     - HEAT INDEX IN FAHRENHEIT
WCI    - WIND CHILL INDEX IN FAHRENHEIT
TC     - TEMPERATURE IN CELSIUS WHICH IS ALSO KNOWN AS
         TEMPERATURE IN CENTIGRADE
AFB    - AIR FORCE BASE
         LUKE AFB IS LUKE AIR FORCE BASE
         DAVIS-MONTHAN IS DAVIS-MONTHAN AIR FORCE BASE
NAS    - NAVAL AIR STATION
         EL CENTRO NAS IS EL CENTRO NAVAL AIR STATION
N/A    - NOT AVAILABLE




USA.gov is the U.S. government's official web portal to all federal, state and local government web resources and services.